User: anonymous   Login
Location: Unspecified
(43.4680°N, 87.1740°E)
Time: 12:52:48
(UTC+00:00)
Language:

Meteor 1-21 Rocket - Orbit

View from above orbital plane
View from above orbital plane
View from above satellite
View from above satellite

Ground track
Ground track

The orbit data is extracted from the following two-line orbital elements,

1  7715U 75023B   20099.05908506  .00000177  00000-0  97484-4 0  9991
2  7715  81.2196 314.5297 0051335 126.4680 234.1236 14.06780684309911
Epoch (UTC): 08 April 2020 01:25:04
Eccentricity: 0.0051335
inclination: 81.2196°
perigee height: 833 km
apogee height: 907 km
right ascension of ascending node: 314.5297°
argument of perigee: 126.4680°
revolutions per day: 14.06780684
mean anomaly at epoch: 234.1236°
orbit number at epoch: 30991

The dashed part of the orbit path shows where the satellite is in the earth's shadow,  

DLR